Погода в Сары-Су

Россия / Чеченская Республика     43°50′25″N   46°25′58″E
темп.,
°C
ветер,
м/с
пор.,
м/с
влажн.,
%
обл.,
%
осадки,
мм/ч
давл.,
гПа
погр.,
м
8 мая, сб
сб800:00+10юв33895 0.0 101944
03:00+10юв22884 0.0 101915
06:00+13вюв24855 0.0 101895
09:00+20вюв56511 0.0 1017680
12:00+23в7841100 0.0 10151074
15:00+21вюв8104595 0.0 1014866
18:00+16в71364100 0.0 1014495
21:00+14вюв61377100 0.0 1014421
9 мая, вс
вс900:00+13вюв511905 0.0 1012372
03:00+12вюв399744 0.0 1011276
06:00+14вюв5792100 0.0 1009331
09:00+19юв456825 0.0 1008683
12:00+23вюв65565 0.0 1007931
15:00+23в245553 0.0 10071303
18:00+18зсз121772100 0.1 1010854
21:00+10з121987100 2.1 10171033
10 мая, пн
пн1000:00+9з121884100 1.3 10191271
03:00+9з10158279 1.4 10191086
06:00+9з91476100 0.1 10211373
09:00+11з71170100 0.6 10211309
12:00+17зсз8103597 0.1 10192623
15:00+18зсз6831100 0.1 10182671
18:00+16зсз4645100 0.0 1019187
21:00+11з34515 0.0 102146
11 мая, вт
вт1100:00+9зсз346877 0.0 102162
03:00+8зсз46735 0.0 102088
06:00+9ссз257278 0.0 1021158
09:00+15ссв355284 0.0 10201245
12:00+19вюв783763 0.0 10182204
15:00+18вюв893938 0.0 10171861
18:00+15в68565 0.0 1019790
21:00+10в48825 0.0 1020141
12 мая, ср
ср1200:00+9в36915 0.0 1019105
03:00+9в35935 0.0 101887
06:00+11в37840 0.0 1018191
09:00+18в57530 0.0 10181254
12:00+20вюв664710 0.0 10161509
15:00+20вюв65491 0.0 10161405
18:00+17вюв46620 0.0 1016470
21:00+12вюв348341 0.0 101767